DAL1980 SBKP-SBPA

Flight info

Callsign DAL1980
Flight time 1h 17m
Altitude 30000
Route ASETA UL301 UKLEN UN741 EGBUG UZ96 ASDEK
Aircraft B772/H-B772/2000

Departure

Time 2026-04-28 17:28
Airport Viracopos International Airport (SBKP)

Arrival

Time 2026-04-28 18:45
Airport Porto Alegre-Salgado Filho International Airport (SBPA)
Time Latitude Longitude Altitude Speed Heading
2026-04-28 17:19 -23.00638 -47.15058 2183 ft 0 kts 218°
2026-04-28 17:23 -23.00619 -47.15041 2183 ft 3 kts 218°
2026-04-28 17:23 -23.00603 -47.15027 2183 ft 3 kts 218°
2026-04-28 17:23 -23.00587 -47.15013 2183 ft 3 kts 218°
2026-04-28 17:23 -23.00570 -47.14999 2183 ft 3 kts 218°
2026-04-28 17:24 -23.00561 -47.14991 2183 ft 2 kts 223°
2026-04-28 17:24 -23.00555 -47.15024 2183 ft 8 kts 307°
2026-04-28 17:24 -23.00500 -47.15105 2183 ft 18 kts 306°
2026-04-28 17:24 -23.00416 -47.15174 2183 ft 13 kts 13°
2026-04-28 17:25 -23.00305 -47.15112 2183 ft 22 kts 34°
2026-04-28 17:25 -23.00028 -47.14897 2183 ft 20 kts 45°
2026-04-28 17:25 -22.99919 -47.14774 2183 ft 25 kts 50°
2026-04-28 17:26 -22.99884 -47.14653 2183 ft 11 kts 121°
2026-04-28 17:26 -22.99885 -47.14651 2183 ft 9 kts 124°
2026-04-28 17:26 -22.99887 -47.14648 2183 ft 0 kts 126°
2026-04-28 17:27 -22.99890 -47.14644 2183 ft 6 kts 124°
2026-04-28 17:27 -23.00069 -47.14385 2183 ft 81 kts 128°
2026-04-28 17:27 -23.00569 -47.13691 2184 ft 151 kts 127°
2026-04-28 17:27 -23.01345 -47.12614 2266 ft 201 kts 130°
2026-04-28 17:28 -23.02281 -47.11453 2763 ft 210 kts 129°
2026-04-28 17:28 -23.04353 -47.08594 3546 ft 284 kts 126°
2026-04-28 17:28 -23.05598 -47.06742 4207 ft 320 kts 125°
2026-04-28 17:29 -23.06970 -47.04680 4914 ft 356 kts 124°
2026-04-28 17:29 -23.08433 -47.02382 5904 ft 372 kts 123°
2026-04-28 17:29 -23.09831 -47.00026 7424 ft 382 kts 121°
2026-04-28 17:30 -23.12499 -46.94792 9712 ft 407 kts 116°
2026-04-28 17:30 -23.15063 -46.89178 12196 ft 415 kts 115°
2026-04-28 17:30 -23.16305 -46.86355 13625 ft 412 kts 114°
2026-04-28 17:31 -23.17471 -46.83489 14754 ft 417 kts 112°
2026-04-28 17:31 -23.20753 -46.78450 16525 ft 423 kts 144°
2026-04-28 17:32 -23.26201 -46.75455 17044 ft 462 kts 157°
2026-04-28 17:32 -23.29284 -46.74045 16622 ft 494 kts 161°
2026-04-28 17:32 -23.32661 -46.72863 15708 ft 526 kts 167°
2026-04-28 17:32 -23.36221 -46.71926 16319 ft 524 kts 168°
2026-04-28 17:33 -23.39708 -46.71050 18143 ft 502 kts 169°
2026-04-28 17:33 -23.41925 -46.70517 19346 ft 489 kts 170°
2026-04-28 17:33 -23.45177 -46.69733 21130 ft 470 kts 170°
2026-04-28 17:33 -23.47288 -46.69221 21769 ft 471 kts 170°
2026-04-28 17:34 -23.52663 -46.67917 22575 ft 485 kts 171°
2026-04-28 17:34 -23.56026 -46.67419 22834 ft 488 kts 184°
2026-04-28 17:34 -23.58303 -46.67599 23003 ft 485 kts 194°
2026-04-28 17:34 -23.61447 -46.68642 23300 ft 473 kts 210°
2026-04-28 17:35 -23.64251 -46.70456 23561 ft 466 kts 220°
2026-04-28 17:35 -23.66735 -46.72700 23804 ft 461 kts 229°
2026-04-28 17:35 -23.68871 -46.75294 24047 ft 457 kts 237°
2026-04-28 17:35 -23.70787 -46.78073 24252 ft 458 kts 238°
2026-04-28 17:36 -23.72672 -46.80887 24496 ft 459 kts 239°
2026-04-28 17:36 -23.74506 -46.83698 24725 ft 460 kts 239°
2026-04-28 17:36 -23.76340 -46.86561 24946 ft 461 kts 239°
2026-04-28 17:36 -23.78177 -46.89446 25162 ft 463 kts 239°
2026-04-28 17:37 -23.80018 -46.92338 25378 ft 464 kts 239°
2026-04-28 17:37 -23.81866 -46.95242 25588 ft 466 kts 239°
2026-04-28 17:37 -23.83722 -46.98159 25795 ft 467 kts 239°
2026-04-28 17:37 -23.85582 -47.01083 26006 ft 469 kts 239°
2026-04-28 17:38 -23.87446 -47.04014 26214 ft 470 kts 239°
2026-04-28 17:38 -23.89290 -47.06917 26415 ft 471 kts 239°
2026-04-28 17:38 -23.91164 -47.09866 26615 ft 473 kts 239°
2026-04-28 17:38 -23.93047 -47.12832 26810 ft 474 kts 239°
2026-04-28 17:39 -23.94930 -47.15800 27001 ft 476 kts 239°
2026-04-28 17:39 -23.96815 -47.18772 27190 ft 477 kts 239°
2026-04-28 17:39 -24.00602 -47.24750 27580 ft 479 kts 239°
2026-04-28 17:40 -24.02500 -47.27748 27767 ft 480 kts 239°
2026-04-28 17:40 -24.04400 -47.30750 27951 ft 481 kts 239°
2026-04-28 17:40 -24.06309 -47.33768 28130 ft 482 kts 239°
2026-04-28 17:40 -24.08215 -47.36785 28305 ft 483 kts 239°
2026-04-28 17:41 -24.10125 -47.39811 28474 ft 484 kts 240°
2026-04-28 17:41 -24.12035 -47.42837 28638 ft 484 kts 240°
2026-04-28 17:41 -24.13952 -47.45876 28796 ft 485 kts 240°
2026-04-28 17:41 -24.15871 -47.48921 28950 ft 486 kts 240°
2026-04-28 17:42 -24.17796 -47.51976 29100 ft 487 kts 240°
2026-04-28 17:42 -24.19723 -47.55037 29247 ft 488 kts 240°
2026-04-28 17:42 -24.21649 -47.58098 29392 ft 488 kts 240°
2026-04-28 17:42 -24.23575 -47.61160 29617 ft 487 kts 240°
2026-04-28 17:43 -24.25489 -47.64206 29854 ft 486 kts 240°
2026-04-28 17:43 -24.27406 -47.67258 30052 ft 485 kts 240°
2026-04-28 17:43 -24.29297 -47.70271 30058 ft 485 kts 240°
2026-04-28 17:44 -24.33123 -47.76371 30059 ft 485 kts 240°
2026-04-28 17:44 -24.36921 -47.82436 30059 ft 477 kts 240°
2026-04-28 17:45 -24.40556 -47.88248 30058 ft 464 kts 240°
2026-04-28 17:45 -24.44193 -47.94069 30059 ft 462 kts 240°
2026-04-28 17:46 -24.47831 -47.99898 30059 ft 463 kts 240°
2026-04-28 17:46 -24.51443 -48.05693 30059 ft 462 kts 240°
2026-04-28 17:47 -24.55074 -48.11524 30059 ft 462 kts 240°
2026-04-28 17:47 -24.58698 -48.17353 30059 ft 462 kts 240°
2026-04-28 17:48 -24.62328 -48.23198 30059 ft 462 kts 240°
2026-04-28 17:48 -24.65958 -48.29049 30059 ft 462 kts 240°
2026-04-28 17:49 -24.69579 -48.34893 30059 ft 462 kts 240°
2026-04-28 17:49 -24.73198 -48.40741 30059 ft 462 kts 240°
2026-04-28 17:50 -24.76796 -48.46562 30059 ft 462 kts 240°
2026-04-28 17:50 -24.80409 -48.52415 30059 ft 462 kts 240°
2026-04-28 17:51 -24.84024 -48.58278 30059 ft 462 kts 240°
2026-04-28 17:51 -24.87634 -48.64139 30059 ft 462 kts 240°
2026-04-28 17:52 -24.91225 -48.69977 30059 ft 462 kts 240°
2026-04-28 17:52 -24.96628 -48.78774 30059 ft 462 kts 240°
2026-04-28 17:53 -25.00231 -48.84650 30059 ft 462 kts 240°
2026-04-28 17:53 -25.03837 -48.90537 30059 ft 462 kts 240°
2026-04-28 17:54 -25.07418 -48.96391 30059 ft 462 kts 240°
2026-04-28 17:54 -25.11012 -49.02273 30059 ft 462 kts 240°
2026-04-28 17:55 -25.14611 -49.08170 30059 ft 462 kts 240°
2026-04-28 17:55 -25.18198 -49.14056 30059 ft 462 kts 240°
2026-04-28 17:56 -25.21786 -49.19951 30059 ft 462 kts 241°
2026-04-28 17:56 -25.25346 -49.25805 30059 ft 462 kts 241°
2026-04-28 17:57 -25.28929 -49.31707 30059 ft 462 kts 241°
2026-04-28 17:57 -25.32513 -49.37616 30059 ft 462 kts 241°
2026-04-28 17:58 -25.36086 -49.43515 30059 ft 462 kts 241°
2026-04-28 17:58 -25.39668 -49.49437 30059 ft 462 kts 241°
2026-04-28 17:59 -25.43241 -49.55349 30059 ft 462 kts 241°
2026-04-28 17:59 -25.46785 -49.61223 30059 ft 462 kts 241°
2026-04-28 18:00 -25.50357 -49.67150 30059 ft 462 kts 241°
2026-04-28 18:00 -25.53922 -49.73071 30059 ft 462 kts 241°
2026-04-28 18:01 -25.57490 -49.79007 30059 ft 462 kts 241°
2026-04-28 18:01 -25.61050 -49.84936 30059 ft 462 kts 241°
2026-04-28 18:02 -25.64584 -49.90828 30059 ft 462 kts 241°
2026-04-28 18:02 -25.68160 -49.96752 30058 ft 462 kts 241°
2026-04-28 18:03 -25.71728 -50.02689 30059 ft 462 kts 241°
2026-04-28 18:03 -25.75273 -50.08628 30059 ft 462 kts 241°
2026-04-28 18:04 -25.78822 -50.14579 30059 ft 462 kts 241°
2026-04-28 18:04 -25.82641 -50.20281 30057 ft 472 kts 227°
2026-04-28 18:05 -25.85372 -50.22391 30058 ft 486 kts 212°
2026-04-28 18:05 -25.87502 -50.23345 30063 ft 493 kts 202°
2026-04-28 18:05 -25.92022 -50.24233 30062 ft 503 kts 189°
2026-04-28 18:05 -25.95532 -50.24349 30062 ft 506 kts 185°
2026-04-28 18:06 -26.02585 -50.24261 30059 ft 506 kts 185°
2026-04-28 18:06 -26.09626 -50.24339 30059 ft 505 kts 186°
2026-04-28 18:07 -26.16647 -50.24587 30059 ft 504 kts 187°
2026-04-28 18:07 -26.23627 -50.24872 30059 ft 504 kts 187°
2026-04-28 18:08 -26.30639 -50.25161 30059 ft 504 kts 187°
2026-04-28 18:08 -26.37659 -50.25451 30059 ft 504 kts 187°
2026-04-28 18:09 -26.44676 -50.25742 30059 ft 504 kts 187°
2026-04-28 18:09 -26.51651 -50.26033 30059 ft 504 kts 187°
2026-04-28 18:10 -26.58668 -50.26325 30059 ft 504 kts 187°
2026-04-28 18:10 -26.65689 -50.26617 30059 ft 504 kts 187°
2026-04-28 18:11 -26.72710 -50.26910 30059 ft 504 kts 187°
2026-04-28 18:11 -26.79727 -50.27204 30059 ft 504 kts 187°
2026-04-28 18:12 -26.86698 -50.27495 30059 ft 504 kts 187°
2026-04-28 18:12 -26.93709 -50.27789 30059 ft 504 kts 187°
2026-04-28 18:13 -27.00736 -50.28084 30059 ft 504 kts 187°
2026-04-28 18:13 -27.07721 -50.28377 30059 ft 504 kts 187°
2026-04-28 18:14 -27.14734 -50.28672 30059 ft 504 kts 187°
2026-04-28 18:14 -27.21764 -50.28968 30059 ft 504 kts 187°
2026-04-28 18:15 -27.28742 -50.29262 30059 ft 504 kts 187°
2026-04-28 18:15 -27.35759 -50.29559 30059 ft 504 kts 187°
2026-04-28 18:16 -27.42774 -50.29855 30059 ft 504 kts 187°
2026-04-28 18:16 -27.49787 -50.30152 30059 ft 504 kts 187°
2026-04-28 18:17 -27.56753 -50.30447 30059 ft 504 kts 187°
2026-04-28 18:17 -27.63774 -50.30745 30059 ft 504 kts 187°
2026-04-28 18:18 -27.70794 -50.31043 30059 ft 504 kts 187°
2026-04-28 18:18 -27.76633 -50.31292 30059 ft 504 kts 187°
2026-04-28 18:19 -27.84790 -50.31639 30059 ft 504 kts 187°
2026-04-28 18:19 -27.91801 -50.31938 30059 ft 504 kts 187°
2026-04-28 18:20 -27.98813 -50.32238 30059 ft 504 kts 187°
2026-04-28 18:20 -28.05856 -50.32539 30059 ft 504 kts 187°
2026-04-28 18:21 -28.12828 -50.32837 30059 ft 504 kts 187°
2026-04-28 18:21 -28.19841 -50.33138 30059 ft 504 kts 187°
2026-04-28 18:22 -28.26848 -50.33422 30157 ft 502 kts 194°
2026-04-28 18:22 -28.32665 -50.33683 30149 ft 503 kts 194°
2026-04-28 18:23 -28.39669 -50.33989 30147 ft 503 kts 194°
2026-04-28 18:23 -28.43174 -50.34140 30001 ft 502 kts 194°
2026-04-28 18:23 -28.46624 -50.34288 29998 ft 489 kts 195°
2026-04-28 18:24 -28.49992 -50.34434 29977 ft 478 kts 195°
2026-04-28 18:24 -28.52219 -50.34532 29801 ft 487 kts 195°
2026-04-28 18:24 -28.56766 -50.34727 29327 ft 500 kts 194°
2026-04-28 18:24 -28.60255 -50.34878 28891 ft 502 kts 194°
2026-04-28 18:25 -28.63727 -50.35029 28461 ft 498 kts 194°
2026-04-28 18:25 -28.67165 -50.35220 28016 ft 488 kts 198°
2026-04-28 18:25 -28.70419 -50.35913 27602 ft 464 kts 209°
2026-04-28 18:26 -28.76005 -50.38868 26655 ft 433 kts 223°
2026-04-28 18:26 -28.78570 -50.40645 26213 ft 426 kts 225°
2026-04-28 18:26 -28.80997 -50.42530 25768 ft 420 kts 227°
2026-04-28 18:26 -28.83343 -50.44498 25328 ft 416 kts 229°
2026-04-28 18:27 -28.85631 -50.46487 24895 ft 413 kts 229°
2026-04-28 18:27 -28.87927 -50.48469 24458 ft 412 kts 228°
2026-04-28 18:27 -28.90189 -50.50399 24032 ft 410 kts 228°
2026-04-28 18:27 -28.92475 -50.52353 23603 ft 409 kts 227°
2026-04-28 18:28 -28.94746 -50.54298 23174 ft 407 kts 227°
2026-04-28 18:28 -28.97010 -50.56239 22741 ft 406 kts 227°
2026-04-28 18:28 -28.99269 -50.58178 22309 ft 405 kts 227°
2026-04-28 18:28 -29.01522 -50.60112 21873 ft 404 kts 227°
2026-04-28 18:29 -29.03773 -50.62046 21439 ft 404 kts 226°
2026-04-28 18:29 -29.06018 -50.63977 21000 ft 403 kts 226°
2026-04-28 18:29 -29.08233 -50.65880 20570 ft 402 kts 226°
2026-04-28 18:29 -29.10455 -50.67807 20129 ft 400 kts 227°
2026-04-28 18:30 -29.12530 -50.69897 19699 ft 394 kts 232°
2026-04-28 18:30 -29.13818 -50.71364 19404 ft 392 kts 233°
2026-04-28 18:30 -29.16300 -50.74416 18811 ft 390 kts 235°
2026-04-28 18:30 -29.18099 -50.76741 18369 ft 390 kts 236°
2026-04-28 18:31 -29.19888 -50.79077 17931 ft 390 kts 235°
2026-04-28 18:31 -29.21677 -50.81414 17492 ft 390 kts 235°
2026-04-28 18:31 -29.23466 -50.83750 17055 ft 390 kts 234°
2026-04-28 18:31 -29.25258 -50.86091 16618 ft 391 kts 234°
2026-04-28 18:32 -29.27020 -50.88392 16378 ft 386 kts 234°
2026-04-28 18:32 -29.28800 -50.90719 16173 ft 380 kts 234°
2026-04-28 18:32 -29.30530 -50.92980 15974 ft 375 kts 234°
2026-04-28 18:32 -29.32217 -50.95187 15777 ft 370 kts 234°
2026-04-28 18:33 -29.33902 -50.97391 15583 ft 365 kts 234°
2026-04-28 18:33 -29.35564 -50.99563 15389 ft 360 kts 234°
2026-04-28 18:33 -29.37208 -51.01714 15200 ft 356 kts 234°
2026-04-28 18:33 -29.38845 -51.03847 14853 ft 356 kts 234°
2026-04-28 18:34 -29.40504 -51.05997 14189 ft 362 kts 234°
2026-04-28 18:34 -29.42168 -51.08142 13631 ft 364 kts 233°
2026-04-28 18:34 -29.43862 -51.10323 13062 ft 366 kts 233°
2026-04-28 18:34 -29.45557 -51.12517 12487 ft 368 kts 233°
2026-04-28 18:35 -29.47264 -51.14735 11911 ft 370 kts 233°
2026-04-28 18:35 -29.48974 -51.16962 11329 ft 372 kts 233°
2026-04-28 18:35 -29.50689 -51.19197 10749 ft 374 kts 233°
2026-04-28 18:35 -29.52387 -51.21413 10171 ft 375 kts 233°
2026-04-28 18:36 -29.54117 -51.23671 9583 ft 377 kts 233°
2026-04-28 18:36 -29.55845 -51.25928 9068 ft 373 kts 233°
2026-04-28 18:36 -29.57512 -51.28106 8718 ft 355 kts 233°
2026-04-28 18:36 -29.59124 -51.30211 8037 ft 348 kts 233°
2026-04-28 18:37 -29.60825 -51.32194 7415 ft 344 kts 224°
2026-04-28 18:37 -29.62774 -51.33682 7237 ft 328 kts 215°
2026-04-28 18:37 -29.64623 -51.35069 7083 ft 308 kts 219°
2026-04-28 18:37 -29.66396 -51.36323 6856 ft 296 kts 212°
2026-04-28 18:38 -29.68224 -51.37249 6667 ft 282 kts 204°
2026-04-28 18:38 -29.70108 -51.37798 6333 ft 276 kts 195°
2026-04-28 18:38 -29.71982 -51.38152 6098 ft 270 kts 192°
2026-04-28 18:38 -29.73827 -51.38452 5824 ft 265 kts 191°
2026-04-28 18:39 -29.75645 -51.38742 5510 ft 262 kts 191°
2026-04-28 18:39 -29.77435 -51.39041 5253 ft 257 kts 190°
2026-04-28 18:39 -29.79179 -51.39343 5020 ft 250 kts 190°
2026-04-28 18:39 -29.80850 -51.39636 4840 ft 242 kts 189°
2026-04-28 18:40 -29.82517 -51.39932 4650 ft 239 kts 189°
2026-04-28 18:40 -29.84139 -51.40220 4456 ft 236 kts 188°
2026-04-28 18:40 -29.85766 -51.40508 4349 ft 238 kts 189°
2026-04-28 18:40 -29.87398 -51.40799 4195 ft 237 kts 189°
2026-04-28 18:41 -29.89024 -51.40984 4055 ft 233 kts 182°
2026-04-28 18:41 -29.90640 -51.40847 3845 ft 233 kts 171°
2026-04-28 18:41 -29.92209 -51.40395 3656 ft 232 kts 165°
2026-04-28 18:41 -29.93748 -51.39825 3449 ft 231 kts 162°
2026-04-28 18:42 -29.95251 -51.39250 3237 ft 231 kts 163°
2026-04-28 18:42 -29.96759 -51.38617 3020 ft 230 kts 155°
2026-04-28 18:42 -29.98041 -51.37534 2801 ft 229 kts 133°
2026-04-28 18:42 -29.98813 -51.35929 2571 ft 232 kts 111°
2026-04-28 18:43 -29.99125 -51.34077 2326 ft 236 kts 99°
2026-04-28 18:43 -29.99220 -51.32193 2149 ft 235 kts 91°
2026-04-28 18:43 -29.99215 -51.30315 1962 ft 231 kts 90°
2026-04-28 18:43 -29.99236 -51.28465 1732 ft 229 kts 91°
2026-04-28 18:44 -29.99269 -51.26703 1478 ft 214 kts 91°
2026-04-28 18:44 -29.99332 -51.23549 888 ft 179 kts 91°
2026-04-28 18:44 -29.99361 -51.22110 668 ft 180 kts 91°
2026-04-28 18:45 -29.99390 -51.20677 458 ft 182 kts 91°
2026-04-28 18:45 -29.99419 -51.19206 204 ft 183 kts 91°
2026-04-28 18:45 -29.99448 -51.17758 26 ft 162 kts 91°
2026-04-28 18:45 -29.99461 -51.17166 24 ft 32 kts 94°
2026-04-28 18:46 -29.99467 -51.16871 24 ft 45 kts 92°
2026-04-28 18:46 -29.99370 -51.16741 24 ft 27 kts
2026-04-28 18:46 -29.99279 -51.16824 24 ft 17 kts 274°
2026-04-28 18:46 -29.99272 -51.17041 24 ft 37 kts 271°
2026-04-28 18:47 -29.99261 -51.17352 24 ft 28 kts 295°
2026-04-28 18:47 -29.99119 -51.17407 24 ft 25 kts
2026-04-28 18:47 -29.99100 -51.17406 24 ft 0 kts
2026-04-28 21:41 -29.99097 -51.17405 19 ft 0 kts
2026-04-28 21:41 -29.99101 -51.17406 19 ft 0 kts